Location: Newark
(45.4422°N, 16.2769°E)
Time: 23:38:22
(UTC+00:00)

Tiros 1 despin weight - Visible Passes

Search period start: 08 December 2019 00:00
Search period end: 18 December 2019 00:00
Orbit: 594 x 642 km, 48.2° (Epoch: 08 December)

Date Brightness Start Highest point End Pass type
(mag) Time Alt. Az. Time Alt. Az. Time Alt. Az.
08 Dec ? 04:19:57 10° SSW 04:23:53 30° SE 04:27:48 10° E visible
09 Dec ? 02:59:16 12° SE 02:59:28 12° SE 03:01:12 10° ESE visible
09 Dec ? 04:36:23 13° SW 04:40:16 50° SSE 04:44:35 10° ENE visible
10 Dec ? 03:15:57 22° SE 03:15:57 22° SE 03:19:07 10° E visible
10 Dec ? 04:53:03 15° WSW 04:56:45 77° SSE 05:01:13 10° ENE visible
11 Dec ? 03:32:23 36° SE 03:32:23 36° SE 03:36:07 10° E visible
11 Dec ? 05:09:29 14° WSW 05:13:20 78° NNW 05:17:49 10° ENE visible
12 Dec ? 03:48:40 59° SE 03:48:40 59° SE 03:52:49 10° ENE visible
12 Dec ? 05:25:45 11° W 05:30:00 64° N 05:34:26 10° ENE visible
13 Dec ? 04:04:48 86° WSW 04:04:55 89° S 04:09:25 10° ENE visible
13 Dec ? 05:42:13 10° W 05:46:42 60° N 05:51:06 10° E visible
14 Dec ? 02:43:47 13° ENE 02:43:47 13° ENE 02:44:22 10° ENE visible
14 Dec ? 04:20:51 59° WNW 04:21:32 71° NNW 04:26:01 10° ENE visible
15 Dec ? 02:59:46 18° ENE 02:59:46 18° ENE 03:01:01 10° ENE visible
15 Dec ? 04:36:50 40° WNW 04:38:13 61° N 04:42:39 10° ENE visible
16 Dec ? 03:15:42 25° ENE 03:15:42 25° ENE 03:17:36 10° ENE visible
16 Dec ? 04:52:45 29° WNW 04:54:55 61° N 04:59:21 10° E visible
17 Dec ? 03:31:35 34° ENE 03:31:35 34° ENE 03:34:13 10° ENE visible
17 Dec ? 05:08:39 21° WNW 05:11:36 69° NNE 05:16:03 10° E visible
